ECMWFFLT2_500_spd_096.txt.gz
Wind_Speed
19 18 17 17 17 18 18 18 19 20 21 21 22 23 24 25 25 25 25 25 24 24 24 24 24 24 24 22 23 23 22 19 18 17 14 11 11 9 7 8 10 13 12 11 11 9 7 6 7 7 7 7 7 7 6 6 6 7 6 6 6 6
20 18 17 17 17 18 18 20 20 21 21 22 23 24 26 27 27 27 27 27 26 26 25 25 25 24 24 23 23 23 22 19 19 18 14 12 11 9 7 8 10 12 13 12 11 10 8 8 8 7 7 8 8 9 9 8 9 9 9 8 8 8
20 18 17 17 17 18 19 20 21 20 20 21 23 25 27 29 30 30 30 30 30 28 26 26 27 25 25 25 23 22 22 20 19 18 16 13 11 10 8 7 9 12 13 13 12 10 9 10 10 9 8 8 8 9 10 11 12 12 11 11 11 10
20 19 18 17 18 18 19 20 20 19 20 22 24 27 29 31 32 32 33 33 32 30 28 28 28 26 26 26 25 23 22 19 18 19 17 14 12 10 8 6 8 11 12 13 13 11 10 11 11 10 9 9 9 10 11 12 13 14 14 14 14 13
21 20 19 18 19 19 20 19 19 19 21 23 26 28 30 33 34 34 34 33 32 30 28 27 27 25 25 25 25 24 21 19 19 19 18 15 13 11 7 6 7 10 12 12 12 11 11 11 12 11 11 12 12 12 12 13 14 15 15 15 15 15
20 20 19 19 19 20 20 19 19 20 22 25 27 30 32 34 34 34 34 33 31 29 27 26 25 26 25 24 26 25 21 19 19 19 19 16 14 12 8 6 8 10 11 12 12 12 13 13 12 12 13 14 14 13 13 14 15 15 15 16 16 17
20 19 19 19 21 21 20 19 20 21 22 25 28 31 33 33 34 34 33 31 29 28 27 26 25 27 27 27 29 26 21 20 20 20 19 17 15 13 9 7 8 10 11 11 13 14 14 14 13 13 14 15 14 14 14 15 16 16 15 15 17 18
19 19 19 20 22 22 20 19 19 20 22 25 29 32 33 32 33 33 32 30 28 27 27 25 25 27 29 30 31 27 22 22 21 21 20 18 16 13 10 8 8 10 11 12 14 15 15 14 14 15 16 16 15 15 15 16 16 15 14 14 17 17
20 20 20 21 22 21 18 17 18 21 23 25 28 31 32 30 31 31 31 29 26 25 25 24 24 26 28 29 29 26 22 22 22 21 20 18 16 14 11 9 9 10 11 12 14 15 15 14 15 16 17 17 17 16 17 16 16 16 15 16 17 18
20 20 21 21 21 19 17 18 20 23 24 26 28 30 30 29 29 29 28 26 24 23 23 24 25 25 25 24 25 24 23 23 22 21 20 18 16 15 12 10 10 11 11 13 14 14 14 15 16 17 17 17 17 17 17 17 17 17 16 17 18 20
17 17 18 19 18 16 18 21 24 25 26 28 29 30 29 27 27 27 25 24 25 23 23 24 24 23 22 21 22 23 23 23 22 21 20 18 16 15 12 11 11 12 12 13 14 14 14 15 16 17 17 17 17 16 17 18 18 18 17 17 19 20
16 17 18 18 17 18 21 23 25 27 28 29 29 30 28 25 25 25 23 24 25 25 25 25 23 22 21 20 21 22 23 22 22 21 20 18 16 14 13 12 12 13 14 14 13 13 13 14 15 16 16 17 17 16 17 18 18 17 16 17 18 18
18 18 19 19 19 20 23 24 26 28 28 28 28 29 27 25 25 24 24 24 23 24 25 25 22 21 21 21 21 22 23 22 22 21 20 18 16 14 14 13 13 14 14 14 13 13 13 14 15 16 17 17 18 18 18 18 18 17 17 17 17 16
17 18 18 19 19 20 22 23 25 27 27 27 26 28 28 26 26 25 24 23 23 23 24 25 23 21 21 21 21 21 22 22 22 21 20 17 15 14 14 14 14 14 14 14 13 13 13 15 16 16 16 17 17 17 17 17 18 16 15 14 15 15
16 17 18 19 19 19 21 22 25 25 26 25 25 27 28 26 25 24 22 22 24 25 24 24 23 22 21 21 21 20 20 21 20 20 18 16 15 14 14 14 14 13 13 13 12 13 13 14 14 14 14 14 15 15 16 16 15 13 12 13 13 13
16 18 19 19 19 20 22 23 24 24 24 25 24 24 24 23 22 22 20 20 21 21 21 21 21 22 20 19 21 19 16 16 16 16 16 16 15 14 13 13 13 13 13 12 12 12 12 11 11 12 12 12 13 13 13 13 11 10 10 11 11 10
16 17 17 18 19 20 21 21 21 21 22 24 23 21 20 19 21 21 20 18 16 16 17 18 20 21 18 16 18 17 14 13 14 15 15 15 14 13 13 13 13 13 12 12 12 12 11 10 10 11 11 11 11 11 11 11 11 10 9 8 8 9
16 15 15 16 17 18 19 19 19 19 20 21 20 20 19 19 20 21 20 18 17 17 19 19 19 18 16 14 14 15 13 13 14 15 14 14 13 12 12 13 13 12 12 13 13 12 11 10 10 10 9 9 9 9 9 10 11 10 9 8 9 9
15 15 14 14 16 18 19 20 19 18 17 17 17 18 19 19 20 21 20 19 18 18 18 18 17 16 14 13 13 14 14 13 14 14 13 12 11 10 11 12 12 12 12 13 14 13 12 11 10 10 9 8 8 7 7 8 9 9 8 9 9 9
15 16 15 16 18 21 23 23 21 19 16 15 16 18 19 19 20 21 20 18 17 17 16 16 17 15 12 12 13 14 13 13 14 13 12 11 10 10 11 12 12 12 13 14 14 13 11 11 11 10 9 8 8 8 8 8 8 7 7 8 8 9
14 16 17 19 21 21 22 21 20 19 17 16 17 19 19 19 21 22 20 18 17 16 16 17 17 14 12 12 12 12 13 15 14 12 11 10 10 11 12 13 13 13 13 13 13 12 11 11 12 12 11 10 10 10 10 9 8 7 8 8 8 8
13 14 16 20 21 19 18 17 17 17 16 15 17 19 20 19 21 22 19 18 17 17 17 18 17 15 14 13 12 12 15 16 15 12 11 10 10 11 12 13 13 13 13 13 13 12 12 12 13 12 12 12 12 11 11 10 10 9 8 9 8 8
15 14 14 16 17 17 16 14 14 15 14 14 14 16 18 19 20 20 18 16 16 17 17 17 17 15 15 14 13 13 15 16 16 14 12 11 12 12 13 13 13 13 13 13 13 12 12 13 13 13 13 13 13 12 12 11 11 10 9 10 10 10
18 16 16 16 16 16 15 11 10 12 12 12 11 11 16 19 19 18 15 15 16 17 18 18 18 16 15 16 15 14 14 15 15 14 13 12 13 13 14 14 14 13 13 13 12 12 12 13 13 13 13 14 14 13 12 11 12 11 11 11 12 12
18 18 17 18 18 18 16 11 7 9 10 10 9 10 14 17 18 17 16 17 17 17 18 19 18 18 18 17 16 15 14 16 15 14 14 14 14 15 15 16 15 14 13 12 12 12 12 12 12 12 13 13 13 13 13 13 13 13 13 13 13 13
18 18 19 20 19 19 20 16 11 9 10 10 10 11 13 14 14 14 15 17 18 17 17 17 17 18 19 18 16 15 15 16 16 16 15 15 16 16 17 17 16 14 12 12 12 13 12 11 12 13 13 13 13 14 14 15 15 15 15 14 14 15
19 19 20 21 20 20 20 19 16 16 15 15 15 15 15 14 14 14 13 14 16 16 16 16 16 17 18 17 17 16 17 18 18 17 17 17 17 17 18 18 16 14 13 13 13 13 12 12 13 13 14 14 15 15 16 16 16 16 16 15 15 15
20 21 21 21 20 20 20 19 18 19 20 21 21 20 18 17 16 16 16 16 16 15 16 16 16 17 17 18 18 18 17 18 18 18 18 18 19 19 19 19 17 16 15 15 14 13 13 14 14 14 15 15 16 16 16 17 17 17 16 16 15 15
20 22 23 23 21 20 20 20 18 19 21 22 23 24 22 20 18 17 18 18 18 16 16 17 17 17 17 18 18 17 17 18 18 19 18 18 19 20 21 20 18 17 16 15 15 14 15 15 14 15 15 16 16 16 17 17 17 17 16 16 16 16
21 22 23 24 23 22 21 21 19 18 20 21 22 23 24 22 20 18 18 18 18 18 18 18 18 18 18 19 18 18 18 18 19 19 19 19 19 20 21 20 19 18 17 17 16 16 15 15 16 16 17 17 17 17 18 18 17 17 17 16 17 17
21 22 22 22 22 23 23 23 21 19 20 21 21 23 25 25 23 20 18 17 17 18 19 19 19 20 21 21 20 20 19 20 21 21 20 20 20 21 20 19 19 19 19 18 17 17 16 17 17 18 18 18 18 18 18 19 18 17 17 17 18 18
23 23 22 21 21 22 23 24 24 22 22 23 23 23 25 26 25 22 20 17 17 18 20 20 20 21 22 22 22 22 22 22 22 22 22 22 22 22 21 21 20 20 19 18 18 18 18 18 18 19 18 18 18 19 19 19 18 17 17 18 18 18
25 25 24 23 23 25 26 27 28 26 24 24 25 25 25 26 26 24 22 20 18 19 20 21 21 22 23 23 23 24 24 23 24 23 23 22 23 23 23 22 22 21 19 19 18 18 18 19 19 19 19 18 19 19 19 19 18 18 18 18 18 17
26 26 26 25 25 27 28 28 29 28 27 26 26 26 25 26 26 24 23 23 23 21 21 22 23 24 24 24 25 26 25 24 24 24 24 23 23 23 23 23 23 22 20 19 19 19 19 19 19 19 19 19 19 19 19 19 19 19 18 17 17 17
28 28 27 26 26 26 26 26 27 28 28 27 27 26 25 25 24 23 23 24 24 24 24 24 25 25 25 26 27 27 26 25 25 25 25 24 23 23 23 24 24 22 21 21 20 19 20 20 20 19 19 19 19 19 19 19 19 19 19 18 18 18
31 29 27 27 27 25 24 26 28 28 28 27 27 26 24 23 22 22 22 23 23 24 25 24 25 26 27 27 27 27 26 25 25 26 25 24 23 22 23 24 24 23 22 21 20 20 20 20 20 19 18 19 19 19 19 20 20 20 19 19 19 19
29 28 27 27 27 25 24 26 28 30 29 29 28 26 24 23 21 21 22 22 22 23 23 23 23 25 28 28 28 27 26 26 26 26 25 24 23 22 23 24 23 22 22 21 21 21 21 20 19 18 18 18 19 19 20 20 20 20 19 19 19 20

ECMWFFLT2_500_spd_102.txt.gz
Wind_Speed
18 19 19 19 19 19 19 20 20 20 19 19 18 17 18 17 18 18 20 21 21 22 23 23 23 22 21 19 18 19 19 19 18 20 22 20 16 13 10 10 11 10 9 10 9 8 8 8 9 10 10 10 10 10 11 12 13 12 11 10 10 10
19 19 19 19 19 19 20 20 20 20 20 20 19 19 19 19 19 20 21 21 22 23 23 24 24 25 24 21 20 20 21 21 20 19 20 22 20 14 11 10 12 11 10 10 10 9 8 8 10 11 11 11 11 11 12 14 15 15 14 13 12 12
19 19 19 19 19 20 20 20 21 21 21 22 21 21 21 20 21 22 22 23 23 23 24 24 25 26 25 22 19 20 21 22 21 19 20 24 22 16 12 11 12 12 11 11 11 10 9 9 11 11 12 13 13 12 13 15 16 16 16 15 15 15
18 19 19 19 20 20 20 21 21 22 22 23 24 24 22 22 23 24 24 24 24 24 25 25 25 27 25 22 19 18 20 21 20 19 20 25 23 17 14 13 13 13 12 12 12 11 10 11 12 12 13 14 15 14 15 15 16 17 17 16 16 16
18 18 19 19 20 20 20 21 22 22 24 25 25 25 23 24 25 25 25 24 24 25 26 26 26 27 25 23 20 18 19 20 20 19 20 25 24 19 15 14 14 14 13 13 13 12 11 12 13 13 14 15 16 16 16 17 18 18 17 17 17 17
18 18 18 19 20 21 21 21 22 23 24 26 26 25 25 25 25 25 26 24 24 25 26 26 26 26 25 24 22 20 19 20 20 18 21 26 25 20 16 14 14 15 14 14 14 14 13 13 14 14 15 15 16 17 17 18 19 20 19 19 19 19
20 20 20 20 21 21 22 22 23 23 24 26 25 25 26 26 26 26 25 24 24 25 26 27 27 26 25 24 23 21 20 19 19 18 19 22 22 19 18 15 15 15 15 15 15 15 14 14 15 15 15 15 16 17 17 19 20 21 20 20 20 20
21 21 21 21 22 22 23 23 23 23 24 25 25 26 26 26 26 26 24 24 25 27 28 28 27 25 24 24 23 21 19 18 18 18 19 19 20 21 19 16 16 16 16 16 16 16 16 15 16 16 16 16 16 17 18 18 20 21 21 21 21 21
21 21 22 22 22 22 22 23 23 24 24 25 25 25 25 26 26 25 24 24 27 29 30 28 27 24 23 23 22 20 19 18 17 17 19 20 21 23 20 17 17 17 16 17 17 17 16 16 16 17 17 17 17 18 18 19 20 21 22 21 21 21
21 21 21 21 21 21 21 22 23 23 24 24 24 23 24 25 25 24 24 26 28 29 29 28 26 23 22 22 21 20 19 17 16 16 17 19 22 24 21 18 18 17 17 18 17 17 16 17 17 17 17 17 18 18 19 20 20 21 22 22 22 22
20 20 20 20 20 20 20 21 22 22 23 24 23 23 24 24 24 25 27 28 28 28 29 27 24 22 22 22 20 20 19 17 16 16 17 18 21 23 21 20 20 18 18 18 18 18 18 18 18 17 18 18 18 19 20 20 20 21 21 22 22 22
19 19 19 19 19 19 19 20 21 21 22 22 22 23 24 25 26 27 28 27 27 28 29 26 23 22 22 22 22 22 20 19 17 15 16 17 20 20 20 21 20 18 18 19 18 19 19 19 18 18 18 18 18 19 19 19 19 19 20 20 20 20
17 18 18 19 19 19 19 19 20 21 21 21 21 23 25 26 26 27 27 27 27 28 28 25 23 23 22 22 24 23 21 20 18 16 16 18 20 20 21 22 21 19 19 19 20 20 20 19 18 18 17 17 18 18 19 18 17 17 17 18 18 18
17 17 18 19 19 19 19 19 20 21 22 22 22 23 24 24 25 26 27 27 26 27 27 25 23 24 24 24 25 23 21 21 20 18 17 18 19 20 21 22 21 20 20 20 20 20 19 18 17 17 16 16 17 17 18 17 16 15 16 16 16 16
18 18 19 19 19 19 19 20 21 23 23 23 22 22 22 22 23 24 25 25 25 26 27 26 25 24 25 25 25 24 22 22 21 19 18 18 18 19 21 22 22 20 20 20 20 19 18 17 16 15 14 14 15 16 16 15 14 14 14 14 14 15
19 20 20 20 21 21 21 21 23 24 24 22 22 21 21 21 22 23 23 24 25 26 26 26 25 24 24 24 24 24 22 22 23 20 19 18 17 19 21 22 22 21 20 20 19 18 17 16 14 13 13 13 13 14 14 13 13 12 12 12 13 13
21 21 21 21 21 21 21 21 23 25 24 23 22 23 23 23 23 23 22 23 25 26 26 26 25 23 23 22 23 24 23 25 25 21 19 19 18 19 21 22 22 21 20 20 18 16 15 14 13 12 12 11 12 12 12 12 12 11 12 12 12 12
22 22 21 21 20 20 20 20 21 23 24 24 23 24 24 23 24 25 24 23 24 24 24 24 23 22 21 20 21 22 22 24 24 22 21 20 19 20 22 23 22 22 20 18 16 15 14 13 12 12 11 11 11 11 11 11 11 11 12 12 12 12
22 21 21 21 20 20 20 21 21 22 24 25 24 24 24 23 23 24 25 25 23 21 21 22 21 19 19 19 18 18 19 21 22 22 21 19 19 20 21 22 22 21 19 17 16 15 14 13 12 11 11 11 11 11 10 10 11 11 10 10 11 12
22 22 22 22 22 21 21 22 22 23 24 25 24 24 25 26 25 23 23 23 21 19 18 20 20 19 19 20 19 18 19 19 20 20 20 20 19 19 19 19 19 18 17 16 16 16 15 12 11 11 11 11 11 11 11 11 11 10 9 10 10 10
21 22 22 22 22 21 22 22 23 23 23 24 25 25 26 26 25 23 21 21 21 19 18 20 21 20 19 21 20 19 19 19 19 19 19 20 19 17 17 17 18 18 16 16 17 16 15 12 11 11 11 11 11 11 11 11 11 10 11 11 11 10
20 21 22 21 21 21 21 22 23 23 24 24 24 26 26 25 23 21 21 22 21 20 20 20 20 19 19 20 21 20 20 19 18 18 18 19 18 17 18 18 18 17 16 16 16 16 14 12 11 10 11 11 11 12 12 12 12 12 13 13 12 11
20 20 21 21 21 22 22 23 23 23 24 25 24 26 25 23 22 20 21 22 20 20 21 21 20 20 21 22 21 20 20 19 18 18 19 19 19 18 19 18 17 17 16 16 16 15 14 13 11 9 11 12 12 13 13 12 13 14 14 13 13 13
20 20 21 21 22 22 22 23 24 24 25 26 25 26 25 23 21 20 20 20 19 20 22 23 22 22 23 23 21 20 19 18 18 18 20 20 19 18 19 18 17 17 17 16 15 15 14 13 11 11 12 13 12 13 13 13 13 14 14 13 14 14
20 21 22 22 22 22 23 23 24 24 26 27 27 27 27 24 21 19 19 18 17 18 20 21 22 22 22 22 20 20 19 18 17 18 20 21 20 19 19 18 17 16 16 16 15 14 14 14 13 12 13 12 12 13 13 13 13 13 14 13 14 14
21 22 22 23 23 23 23 23 24 25 26 28 28 28 29 28 25 22 20 18 17 17 17 18 21 21 20 20 20 20 19 18 17 17 19 21 20 19 19 17 16 16 16 16 16 16 16 15 14 13 12 12 13 12 12 13 13 14 14 14 14 14
21 22 22 23 23 24 24 24 24 25 26 28 29 29 29 30 29 27 24 22 20 19 16 15 17 19 19 20 20 21 20 18 17 17 18 20 20 19 19 17 17 16 16 17 17 17 17 15 13 12 12 13 14 13 13 13 13 14 14 14 14 15
21 22 22 23 24 25 26 26 25 25 26 27 29 30 30 30 30 29 27 25 23 21 18 16 14 15 18 20 20 22 22 20 19 18 17 19 20 20 19 18 18 17 16 18 18 17 16 15 13 13 12 13 14 14 14 14 13 14 14 14 15 15
21 22 23 24 25 26 27 27 27 26 26 27 28 30 31 31 30 28 27 26 25 23 20 18 15 13 16 19 21 22 23 22 22 20 17 17 19 20 20 18 18 17 17 18 17 17 16 14 13 14 13 13 13 13 14 14 14 15 15 15 15 15
22 24 25 25 26 27 28 28 28 28 28 28 29 30 30 30 29 28 26 25 24 25 22 19 17 15 14 17 20 22 23 23 23 22 20 19 20 20 20 19 18 18 18 18 17 17 17 14 14 15 14 13 14 15 14 14 15 16 16 15 15 15
24 26 27 27 27 27 27 28 29 29 29 29 30 30 30 30 29 28 27 25 23 24 24 20 18 17 16 16 18 21 23 24 24 23 22 22 22 22 21 20 19 18 19 18 18 18 17 15 15 15 14 13 15 16 15 15 16 17 16 15 15 15
26 28 29 29 28 27 27 27 28 29 30 31 31 32 32 32 31 29 28 27 24 24 24 23 20 19 18 17 18 19 20 22 24 24 24 23 22 22 22 20 19 19 19 18 18 17 17 16 15 15 14 14 16 17 16 16 17 17 16 15 15 15
27 28 29 29 29 28 28 27 28 30 31 32 33 33 34 34 33 31 30 29 27 25 25 24 23 22 19 18 19 18 18 20 21 22 23 23 21 21 21 20 19 19 18 18 17 17 17 16 16 16 16 16 17 17 17 16 17 17 17 16 16 15
28 29 29 30 30 29 29 29 30 30 32 32 33 34 35 36 36 33 31 31 29 27 27 26 26 24 20 18 19 19 19 19 20 21 22 22 20 19 20 20 20 19 18 18 18 17 18 17 18 18 18 17 17 17 18 17 18 19 18 17 17 16
29 30 30 31 31 30 30 31 32 32 33 33 33 33 35 37 37 34 31 32 31 29 28 28 28 26 23 20 20 20 19 20 21 22 23 23 20 18 19 20 20 20 20 19 18 18 19 19 20 20 19 18 18 19 19 19 19 19 18 18 17 16
30 31 32 32 31 31 32 33 34 35 35 35 34 34 34 37 37 34 32 34 33 30 29 29 28 27 25 22 21 21 21 21 22 23 23 23 21 19 19 20 20 20 19 19 19 19 21 22 22 21 19 18 19 20 20 19 19 19 18 18 17 16
32 32 33 33 33 34 35 36 37 38 38 38 37 35 35 37 36 33 32 34 34 31 29 29 28 27 26 24 24 24 23 23 24 24 25 25 24 22 21 21 21 21 21 21 21 22 23 24 22 20 19 18 19 20 20 20 19 18 18 18 17 16

ECMWFFLT2_500_spd_105.txt.gz
Wind_Speed
20 21 18 14 11 12 13 15 17 18 19 21 22 23 24 24 24 24 24 24 24 23 23 23 22 21 20 19 19 20 20 20 20 20 20 21 20 17 15 16 14 11 10 10 11 11 10 10 10 10 10 10 10 10 10 11 11 11 11 10 11 11
18 20 20 17 10 9 11 14 16 18 20 21 23 25 25 25 26 26 26 25 25 25 25 23 23 22 21 20 20 20 20 21 21 21 21 21 21 18 17 18 16 13 11 11 12 12 11 11 11 12 11 11 11 11 11 11 12 12 12 12 12 13
17 17 19 20 15 9 10 14 16 19 21 23 25 25 26 26 25 26 26 26 26 25 25 24 24 23 22 22 21 21 21 22 22 22 22 21 20 19 18 19 18 15 12 12 12 12 12 12 13 13 13 13 12 12 12 12 12 13 12 12 13 13
19 18 19 22 21 15 12 14 18 20 21 23 25 24 24 24 23 24 24 26 25 24 24 24 25 24 23 22 21 21 21 22 22 22 23 23 21 18 18 19 19 17 14 12 12 12 12 13 14 14 14 14 13 13 12 12 13 13 13 13 13 14
20 19 21 21 22 20 16 16 20 21 20 23 24 24 25 24 24 23 24 24 23 23 24 23 23 23 22 21 20 20 20 21 23 24 23 24 22 19 18 20 21 19 14 12 12 12 13 14 15 15 14 14 14 13 13 13 13 14 14 14 15 15
21 20 22 20 19 20 19 20 21 19 19 22 24 25 25 24 25 25 24 25 24 25 25 22 23 23 21 20 19 18 19 20 23 24 24 24 23 21 19 20 23 19 13 12 13 13 14 14 15 15 15 15 15 14 14 14 14 14 15 15 16 17
22 22 23 20 18 19 21 23 21 18 20 21 24 26 25 25 25 25 25 25 25 26 26 24 23 23 21 20 20 18 18 20 22 24 24 23 23 22 20 20 22 17 13 14 14 14 14 15 16 16 16 15 15 15 16 16 14 14 16 16 16 17
23 25 23 19 19 21 23 25 22 19 20 22 24 25 25 25 24 24 26 25 25 25 27 26 23 22 22 22 21 18 18 20 22 22 23 23 23 23 20 19 19 16 14 15 15 15 15 15 16 16 16 15 15 16 17 17 15 15 16 17 17 17
23 24 22 20 21 24 24 25 21 19 20 22 24 25 25 25 24 25 26 25 25 24 25 25 23 24 25 25 21 19 19 20 21 21 21 22 23 23 21 20 18 18 16 15 16 15 15 16 16 16 16 15 15 16 18 17 16 15 15 16 16 16
22 23 22 22 23 23 23 23 20 19 20 22 24 25 26 26 26 26 25 25 25 24 24 26 26 26 27 25 19 19 22 21 20 20 20 21 22 22 22 21 19 18 17 16 17 16 15 16 16 16 16 15 15 16 18 18 17 16 14 14 15 15
22 23 21 21 22 22 22 20 18 18 20 21 22 23 25 26 27 27 27 26 25 25 26 28 29 28 28 24 21 22 24 23 21 19 19 21 22 22 22 21 19 18 18 17 17 17 16 16 16 16 16 15 15 16 17 17 17 16 14 13 14 14
23 22 20 20 20 21 23 20 17 17 19 20 20 20 22 25 28 28 28 27 24 24 26 27 28 29 27 25 24 24 26 26 23 19 18 20 21 22 21 20 19 18 19 18 18 18 17 16 16 16 16 15 15 16 16 17 16 16 14 12 12 13
24 23 20 20 21 22 23 21 19 18 19 21 21 20 20 23 26 27 28 28 26 24 26 27 27 28 26 25 24 24 26 26 24 22 19 20 21 22 21 20 19 18 19 19 19 19 18 17 17 16 15 15 15 15 15 15 15 14 13 11 10 11
23 23 21 20 20 22 24 23 21 20 20 21 21 21 21 23 25 25 27 29 27 24 25 26 26 27 26 26 25 25 27 25 24 23 20 20 22 23 22 21 20 19 19 20 19 19 18 17 17 15 14 14 14 14 14 13 13 13 12 11 10 10
20 21 21 19 19 21 24 23 21 20 19 20 20 20 21 23 25 25 27 29 27 25 25 25 26 27 27 27 27 27 27 25 25 26 23 22 23 24 24 21 19 19 20 19 19 19 18 17 16 15 14 14 13 13 13 12 12 11 10 10 9 9
19 19 19 19 19 21 22 22 21 20 20 19 19 19 20 22 24 26 28 29 29 27 26 25 27 28 28 29 29 27 25 24 25 26 25 24 25 25 25 23 19 19 19 18 18 18 17 17 15 14 14 14 13 13 12 11 11 10 9 9 8 8
19 17 17 18 19 20 21 22 21 21 20 20 19 19 20 21 23 25 28 30 29 27 26 26 28 29 29 30 29 26 24 24 24 24 25 25 25 25 26 26 21 19 19 18 17 17 17 16 14 14 14 14 13 12 11 10 10 10 9 8 8 8
17 16 17 18 19 20 20 22 22 21 21 21 20 20 21 21 22 24 26 30 31 29 28 29 29 28 28 28 27 24 23 24 23 24 24 25 25 25 26 27 26 23 19 18 17 15 16 15 14 14 15 14 13 13 11 10 10 9 8 7 7 8
17 17 18 19 19 20 21 22 22 22 22 22 21 21 21 22 23 24 25 29 31 29 28 29 29 27 27 25 22 21 22 23 22 22 23 25 25 24 26 26 26 25 20 18 17 16 17 16 15 15 15 14 13 12 12 11 10 9 7 7 7 7
17 18 19 20 20 21 21 23 23 24 23 22 22 22 22 23 24 25 26 28 30 29 28 28 28 27 26 24 21 21 22 23 22 21 21 24 23 22 24 25 24 24 21 19 18 17 17 17 16 16 15 14 12 12 12 11 10 8 7 7 7 7
19 19 21 21 22 22 22 23 24 25 25 24 24 23 23 24 25 27 27 28 29 29 28 27 27 28 27 25 22 22 23 24 23 22 21 21 21 22 23 23 23 23 22 21 18 16 17 17 18 17 15 14 12 12 13 11 10 9 8 8 8 9
20 21 23 23 23 23 23 24 25 26 27 26 26 25 25 26 27 28 28 28 29 30 29 28 28 29 26 23 22 22 23 23 23 22 21 20 21 22 22 22 23 23 22 21 19 17 17 17 18 17 15 13 12 13 13 12 11 10 9 9 9 9
22 23 24 24 24 24 24 25 26 27 28 29 28 26 26 27 29 29 29 29 30 30 30 29 29 29 26 24 23 23 22 22 22 21 21 21 21 21 21 22 22 21 21 20 19 19 18 17 17 16 14 13 12 13 13 12 11 10 10 10 10 10
23 24 24 24 25 25 25 25 26 28 29 30 29 28 27 28 29 30 30 30 30 30 30 29 29 29 28 26 25 24 24 23 23 21 21 21 20 19 19 19 18 18 19 20 20 19 19 18 17 16 15 13 13 13 12 12 11 11 11 11 11 11
23 24 24 25 25 25 25 26 27 28 29 30 30 29 29 29 30 31 31 30 30 31 30 29 28 29 29 27 26 26 25 24 24 23 21 20 19 18 18 17 17 18 20 20 19 19 17 16 16 16 16 14 14 13 13 12 12 12 12 11 11 12
23 24 24 25 25 25 26 27 27 28 29 29 30 31 31 30 30 30 31 31 31 32 32 31 28 28 28 28 26 26 25 24 24 23 21 19 19 19 19 20 20 21 20 19 19 18 16 15 16 17 16 15 15 14 13 13 12 12 12 11 11 12
23 24 24 25 25 26 27 27 28 28 29 30 30 31 31 30 30 29 30 31 31 32 33 32 29 28 28 27 26 26 24 23 23 22 21 20 20 21 22 23 22 22 20 18 18 18 17 16 16 16 15 14 15 14 14 14 12 12 11 11 11 12
23 24 24 25 26 27 28 28 29 29 30 31 31 31 31 31 30 29 29 31 31 32 33 33 30 28 28 27 25 25 23 23 22 22 21 21 21 23 24 24 23 22 19 18 19 18 18 17 16 15 15 15 15 15 15 15 13 13 12 12 12 12
24 24 24 25 26 27 28 29 30 31 31 32 32 32 31 31 31 30 30 31 31 30 31 32 30 28 28 26 25 24 22 22 24 23 22 20 19 21 23 24 23 21 19 19 19 19 18 18 17 16 15 15 16 15 16 15 15 15 14 14 14 13
25 25 25 25 26 27 28 29 30 31 32 34 34 33 32 33 33 32 31 32 31 29 29 29 28 28 29 26 24 24 23 22 23 23 23 20 18 20 22 23 23 22 20 20 20 19 19 18 17 16 15 16 16 16 15 14 15 16 15 14 14 14
25 25 25 25 26 28 29 29 30 31 32 34 34 34 34 34 35 34 33 32 31 29 29 29 27 27 29 28 25 24 24 22 21 21 22 21 20 21 22 23 23 22 20 19 18 18 18 18 17 17 16 16 17 17 15 14 16 17 16 15 14 14
25 24 24 25 27 28 29 30 31 32 32 33 34 35 36 37 37 36 34 33 31 31 30 28 26 26 28 29 27 25 25 23 21 20 22 22 21 22 22 22 22 21 19 18 18 18 18 18 18 18 17 16 17 17 16 15 16 17 16 15 15 15
24 23 25 27 28 29 30 31 32 33 33 33 33 35 37 38 38 37 34 33 32 31 30 28 26 27 28 28 27 27 26 24 22 21 22 23 23 24 23 22 21 20 19 19 19 19 19 18 18 18 17 17 18 17 17 16 16 16 16 15 15 15
23 24 26 27 29 30 31 33 34 34 34 33 34 35 37 39 39 38 35 34 34 33 31 28 26 26 28 28 27 28 27 24 22 23 22 22 22 24 24 21 21 20 20 20 19 19 19 19 19 19 19 19 19 18 17 16 16 16 16 15 15 15
24 25 27 28 30 31 32 33 34 34 34 35 36 37 39 40 41 40 38 37 36 34 32 29 25 24 26 27 27 29 29 26 24 23 23 20 20 23 22 20 20 21 21 21 20 20 20 20 20 20 20 21 21 18 16 17 17 16 16 16 15 15
25 26 27 29 31 32 33 33 34 35 36 37 38 40 42 43 43 43 41 39 37 35 32 29 25 24 25 25 26 28 29 29 26 23 23 21 20 22 23 20 20 21 23 24 23 21 21 22 22 22 21 21 20 17 17 18 18 17 17 16 15 15
25 26 28 30 32 33 33 33 34 37 39 40 42 43 44 44 43 41 40 38 36 34 31 29 26 23 23 24 25 27 29 29 27 24 23 23 22 22 22 21 20 22 24 24 23 23 22 22 23 22 21 21 20 18 17 18 18 18 17 16 15 15

ECMWFFLT2_500_spd_108.txt.gz
Wind_Speed
13 14 15 17 19 22 23 21 17 16 20 22 21 22 24 24 24 23 23 23 23 24 24 24 25 26 26 26 26 24 23 22 20 20 19 19 20 19 17 16 16 14 13 14 14 14 13 12 12 12 11 10 10 10 9 9 8 7 7 7 7 8
12 13 15 17 18 20 21 19 18 21 25 23 18 20 23 24 24 24 23 22 22 23 24 23 23 24 25 26 27 26 24 23 21 20 20 19 19 19 17 16 15 15 14 14 14 15 14 13 13 13 12 11 11 10 9 9 9 9 8 7 8 8
11 13 14 16 19 19 19 19 21 26 29 23 17 18 22 23 24 24 23 21 22 23 23 23 22 22 23 25 27 26 25 24 22 20 20 20 19 18 18 16 16 15 14 14 14 15 15 14 13 13 12 12 11 10 9 10 10 10 9 9 9 9
11 13 14 17 20 18 18 19 22 28 29 23 19 20 21 23 23 23 23 22 23 23 23 23 22 22 23 24 25 26 26 25 24 21 20 20 20 19 18 17 16 16 14 13 14 15 15 14 13 13 13 12 12 11 9 10 11 11 10 10 10 10
11 13 15 18 18 17 18 20 24 28 26 21 23 22 22 23 22 22 21 22 23 23 23 23 24 23 23 24 24 26 26 25 25 23 20 20 20 20 18 17 17 16 14 13 15 16 16 15 13 13 13 12 12 11 10 10 11 11 11 11 11 11
11 13 16 17 16 16 18 21 25 27 23 23 25 22 23 25 22 20 19 20 23 23 23 24 25 24 24 24 23 23 24 25 27 25 21 20 19 20 19 18 17 16 14 14 16 16 16 15 13 14 14 12 12 12 11 10 12 13 12 12 12 12
12 14 16 16 15 16 18 22 24 24 21 22 22 21 24 24 21 20 20 21 22 22 22 24 24 22 23 23 22 22 23 26 28 26 21 20 19 19 19 18 17 15 13 14 15 15 15 15 14 14 14 13 12 12 11 10 12 14 13 13 13 12
14 16 17 16 16 17 19 21 21 21 19 19 20 21 22 21 20 21 22 21 22 21 21 23 22 19 21 23 22 24 25 27 27 25 22 21 20 19 17 17 17 15 13 14 15 14 14 14 14 14 14 13 12 12 11 11 12 14 14 13 13 12
16 17 17 17 17 18 19 19 19 20 19 19 20 20 21 20 19 20 20 20 21 21 20 20 21 20 20 22 23 24 26 27 24 22 23 22 20 20 18 15 16 14 13 14 14 15 15 14 14 15 14 13 12 12 12 11 11 13 15 14 12 11
17 17 17 18 17 17 18 18 18 19 20 21 21 20 21 21 19 18 19 21 22 22 20 19 20 21 22 23 24 24 24 25 23 22 24 23 21 22 20 16 14 12 13 14 14 16 14 13 16 16 14 13 12 12 12 12 11 11 13 14 11 11
18 18 19 18 16 15 16 16 17 19 20 23 23 21 21 21 21 21 21 22 23 23 21 20 20 22 23 24 24 24 23 22 21 22 22 22 24 25 22 18 14 12 12 13 15 16 14 13 17 16 14 13 11 12 13 12 12 10 11 13 11 11
18 19 20 18 16 15 14 15 17 18 20 23 23 22 21 22 24 24 23 22 23 23 22 22 22 23 24 25 24 24 23 21 20 21 20 21 25 27 24 19 15 12 12 12 15 17 15 15 16 16 13 12 11 12 13 12 12 10 10 12 11 10
19 20 20 19 16 15 14 14 17 19 20 22 22 22 22 23 23 23 22 22 23 24 24 23 24 24 24 26 25 24 23 22 22 23 22 23 24 25 24 20 16 13 11 12 16 18 17 16 16 15 13 11 10 12 13 12 12 11 10 10 11 10
20 20 21 20 18 16 15 15 17 19 20 22 23 23 25 23 21 21 22 23 24 24 24 24 25 25 25 26 26 24 23 22 24 25 25 25 23 22 22 21 19 15 12 13 17 18 17 16 16 15 12 10 11 12 12 12 13 12 10 9 9 9
20 21 21 20 19 18 16 16 17 18 19 21 22 24 26 25 21 20 21 22 23 22 22 22 23 25 25 27 27 26 24 23 25 25 25 25 23 22 22 23 21 18 15 14 16 17 16 15 15 14 11 10 11 12 11 11 12 13 11 9 7 7
20 21 21 21 19 17 17 17 17 17 18 20 22 24 27 27 23 20 21 22 23 22 22 22 22 24 25 26 27 26 26 25 25 24 25 25 23 22 22 23 22 20 18 17 16 16 15 14 16 15 11 10 11 12 12 11 12 12 11 9 7 7
20 21 22 21 18 17 17 17 18 18 19 20 21 24 26 28 26 24 24 25 25 25 24 24 24 23 24 26 26 25 25 25 24 24 24 23 23 22 21 21 22 22 20 18 17 16 17 17 16 16 14 13 14 13 12 12 13 12 11 9 8 7
19 20 21 19 18 17 18 19 19 19 20 21 22 23 25 27 28 29 29 28 28 28 27 27 26 25 25 26 27 25 25 25 24 22 21 20 21 21 21 21 23 24 22 21 19 17 21 22 17 17 17 16 16 14 13 13 13 12 11 10 9 8
19 20 19 18 18 18 19 19 19 20 21 22 23 24 25 27 28 29 31 30 30 29 29 28 28 28 27 26 26 26 26 27 25 23 21 20 21 20 20 22 24 26 24 23 23 21 23 23 19 19 18 16 16 16 14 14 13 12 11 10 9 8
19 19 19 18 18 18 18 19 19 20 22 23 24 25 26 27 28 29 29 30 29 29 29 30 30 30 29 27 26 26 27 28 26 24 23 22 22 21 20 21 23 25 24 22 23 23 22 22 20 19 19 16 16 17 15 13 13 13 12 11 9 9
19 20 19 19 18 18 18 19 20 21 23 24 26 27 27 28 28 28 29 29 29 29 29 30 30 30 30 28 27 27 27 27 26 25 24 23 23 23 22 20 21 22 22 21 21 21 21 21 21 19 19 18 17 17 15 14 15 14 12 11 10 9
20 20 20 19 18 18 18 19 20 22 23 25 27 28 29 29 28 28 29 30 30 30 30 30 30 30 30 29 28 27 26 26 26 26 25 23 23 23 22 21 19 19 20 21 21 21 21 21 21 20 19 18 17 17 15 15 15 14 13 12 11 11
21 21 20 19 18 18 18 20 21 23 24 26 27 29 30 29 29 29 30 31 31 31 31 30 30 30 30 30 30 29 27 26 26 25 25 25 24 23 22 21 20 20 21 22 21 21 21 21 20 19 18 18 18 17 15 15 15 14 14 13 12 12
21 21 19 18 18 18 18 20 21 23 25 26 28 28 29 30 30 30 30 31 32 32 31 30 30 30 30 30 30 30 29 28 28 26 25 25 26 25 23 22 22 22 22 22 22 21 22 22 20 18 18 19 18 16 14 15 15 14 14 13 12 12
20 19 19 18 18 18 18 20 22 24 25 26 27 27 29 30 31 31 31 31 31 31 30 30 30 30 30 30 30 30 31 31 30 29 27 26 26 25 24 23 22 22 22 22 23 22 22 22 20 19 19 18 17 16 15 15 15 14 14 13 12 11
19 19 18 18 18 18 18 20 22 24 25 26 26 27 29 30 32 32 32 31 30 30 30 30 30 31 31 30 29 29 30 31 31 30 29 27 26 25 24 23 21 21 21 21 21 20 20 20 20 21 20 18 18 17 16 15 15 14 14 13 12 12
19 18 18 18 18 18 19 20 22 24 25 25 26 28 30 31 32 32 32 31 30 30 30 30 30 31 31 30 29 29 29 31 31 30 29 27 26 24 22 22 20 19 20 19 19 19 20 20 20 20 20 19 19 17 16 17 16 15 14 13 13 12
18 17 17 17 17 18 20 21 24 25 26 27 28 30 31 32 32 32 32 32 31 31 31 30 31 31 31 31 30 28 28 30 31 28 28 27 25 23 21 20 20 19 20 20 19 20 20 20 20 20 19 19 19 18 17 17 15 15 14 13 12 12
18 17 17 17 17 18 20 22 24 25 27 29 31 32 33 34 33 33 33 33 32 32 31 31 31 31 31 32 31 29 27 28 29 27 26 26 26 24 21 20 20 21 22 22 22 21 21 20 20 21 20 18 18 18 18 17 15 16 15 14 14 13
19 18 17 17 17 19 21 23 24 26 28 30 32 34 35 34 33 33 33 33 32 32 32 32 31 30 31 31 31 30 27 26 28 27 25 25 25 24 23 22 22 24 25 23 22 22 21 21 21 21 20 19 19 18 18 17 16 16 16 15 15 14
19 19 18 17 18 20 22 23 25 27 29 31 33 35 35 35 33 32 32 33 32 31 32 33 33 32 31 31 30 28 27 26 26 26 25 24 23 22 23 23 21 24 26 24 22 22 21 21 21 21 20 20 20 19 18 17 16 16 16 15 15 15
20 20 19 19 19 21 22 24 27 28 30 31 34 35 35 35 34 32 32 33 33 33 33 34 36 35 34 32 30 27 26 25 24 24 25 24 23 22 22 22 19 20 24 24 23 22 21 20 21 21 21 20 20 19 18 17 17 17 16 15 16 16
21 20 20 20 21 22 23 26 27 28 30 32 34 36 35 35 34 33 33 35 36 36 35 36 38 39 37 33 31 28 24 23 23 23 24 24 23 22 21 22 20 19 22 24 24 23 22 21 21 22 21 21 21 20 18 18 18 17 16 16 16 15
21 21 21 22 22 23 25 27 28 29 31 33 34 35 35 34 35 35 36 37 38 39 38 38 39 41 40 35 32 30 26 22 22 22 23 23 22 21 20 22 22 22 22 23 23 22 22 21 21 21 22 21 21 21 19 18 18 17 17 16 15 15
21 21 22 22 23 25 26 28 28 29 32 33 33 34 35 35 35 37 38 38 39 39 38 37 39 41 41 37 33 31 28 23 22 20 20 22 21 20 20 20 22 23 23 24 23 22 22 21 21 22 22 22 22 22 20 18 17 17 17 16 15 15
22 22 22 23 24 26 27 28 28 29 32 32 32 33 35 35 35 37 38 38 37 36 34 34 36 39 40 39 35 32 28 24 22 20 19 20 21 20 20 19 20 20 22 24 23 23 22 22 22 22 22 22 23 23 21 19 18 18 18 17 16 15
23 23 23 24 25 26 27 28 28 29 31 31 31 32 34 35 36 36 37 37 36 36 35 32 33 36 37 38 37 33 28 24 22 21 19 19 20 20 20 19 18 19 21 23 23 22 22 22 22 22 22 23 23 22 21 19 19 19 18 18 17 17

ECMWFFLT2_500_spd_111.txt.gz
Wind_Speed
10 11 12 12 12 13 14 15 14 15 16 18 22 24 24 21 22 24 23 22 22 23 23 22 23 24 22 20 19 20 21 20 20 20 20 19 20 20 18 18 16 13 12 12 12 11 10 10 10 10 8 8 8 9 8 7 7 7 7 7 7 7
10 11 11 11 11 13 13 14 14 15 16 18 21 22 20 18 21 22 20 21 20 20 21 22 23 23 22 20 19 19 20 21 21 21 19 18 19 20 19 18 17 14 13 14 13 11 10 10 10 10 8 7 8 9 9 7 7 7 7 7 7 7
11 10 10 10 11 12 13 13 14 16 17 19 20 19 18 19 20 19 19 21 19 18 19 21 23 24 24 22 20 20 20 21 21 21 18 17 19 20 20 18 17 16 14 15 14 12 10 10 10 10 7 6 7 9 9 8 7 7 7 7 7 7
11 10 10 10 10 11 12 13 14 16 18 19 19 19 19 18 17 17 19 19 17 18 21 21 22 23 23 23 21 20 19 19 18 19 19 19 20 21 20 18 18 17 15 15 14 12 10 10 10 9 7 6 6 7 9 8 7 7 8 8 8 8
10 10 10 10 10 11 12 14 15 17 18 19 19 19 18 17 16 17 18 16 15 19 21 22 22 21 22 22 20 19 19 18 17 18 20 21 21 20 19 18 18 18 17 15 14 13 11 10 9 9 7 5 5 6 8 8 6 7 8 9 9 8
11 10 10 9 9 11 12 14 16 18 19 19 19 17 17 16 16 16 16 15 15 17 19 21 21 20 20 20 19 18 18 19 19 19 20 21 21 19 18 18 18 18 17 16 15 13 11 9 8 9 8 5 4 6 8 8 7 6 8 9 9 9
11 10 9 8 9 11 13 15 16 18 19 19 18 17 16 16 16 16 15 16 16 17 19 20 20 18 18 18 18 19 19 20 20 20 19 19 19 17 17 18 17 17 16 15 15 12 10 9 8 8 8 5 4 5 7 8 8 7 8 9 9 9
10 10 9 8 9 11 13 15 16 18 19 17 16 17 16 16 17 16 16 17 17 17 17 18 18 18 18 18 18 19 19 20 21 20 19 17 17 16 18 19 16 15 14 15 14 12 11 11 9 8 8 6 4 4 6 8 9 8 8 8 9 9
9 9 8 8 10 11 13 15 17 18 18 16 16 17 17 16 15 15 15 16 16 15 16 17 17 17 17 17 17 18 20 21 21 20 18 16 16 18 19 19 16 14 13 14 14 13 12 10 8 8 9 7 4 3 5 8 10 10 8 8 9 9
8 8 8 8 10 11 13 16 17 17 16 15 16 17 16 15 14 14 15 14 14 14 15 16 15 15 15 16 17 17 19 21 21 20 17 15 16 18 18 17 17 16 13 13 14 13 11 9 9 9 8 8 4 2 3 7 11 12 10 8 8 9
8 9 8 9 10 12 14 16 16 16 15 15 15 16 15 14 14 15 14 13 12 13 14 15 15 14 15 16 16 16 18 20 21 20 17 16 17 18 19 18 19 18 13 12 13 13 12 10 9 9 9 8 6 4 3 6 11 12 12 10 8 9
9 10 9 10 12 13 15 15 15 15 15 15 14 14 14 14 14 14 14 13 12 13 15 16 15 15 16 17 17 16 18 20 20 20 18 18 19 21 21 20 20 19 14 12 13 14 12 11 10 9 10 9 7 7 6 7 10 12 13 11 9 9
10 11 11 12 13 13 14 14 14 14 14 14 14 14 14 14 14 14 13 14 14 15 16 17 17 17 17 17 17 17 18 20 19 19 20 19 20 21 21 21 20 18 14 12 14 14 12 12 13 11 10 9 7 6 6 5 9 12 13 12 10 9
11 12 12 12 13 13 14 14 14 14 14 14 15 15 15 15 14 14 14 15 16 17 18 18 18 18 19 19 19 19 19 20 19 18 20 21 20 20 20 20 20 17 14 13 14 14 13 16 17 15 10 8 9 9 8 6 8 12 13 12 11 9
11 12 13 13 13 14 14 15 14 14 14 15 15 15 15 16 16 16 17 17 18 18 18 19 19 19 20 21 21 20 20 20 20 19 21 22 21 20 19 19 19 18 16 15 15 14 15 18 19 16 11 9 10 11 14 14 9 12 13 12 12 10
13 13 14 15 15 15 16 16 15 14 14 15 16 16 14 15 17 18 19 19 20 19 19 19 20 20 21 21 22 21 20 20 20 20 21 23 22 20 18 17 18 17 17 16 16 16 16 18 19 17 15 13 14 14 17 19 15 11 13 12 12 11
14 15 16 16 17 17 18 17 15 14 14 15 17 17 16 16 17 18 19 20 21 20 20 20 20 21 21 21 22 21 20 18 19 20 21 23 22 21 19 17 17 17 17 16 16 17 17 18 18 18 20 20 21 21 19 19 17 14 13 12 11 11
15 16 16 17 17 18 19 17 15 14 15 16 17 18 19 18 18 19 20 21 21 21 22 22 23 23 23 23 23 23 23 21 19 19 21 22 22 21 20 19 19 18 18 18 17 17 17 18 18 19 24 23 20 21 19 17 18 17 14 12 10 10
16 17 17 17 18 19 19 18 17 15 15 16 17 19 20 21 21 22 21 21 21 22 24 25 26 27 27 26 25 25 26 25 22 20 21 22 22 22 21 20 20 19 19 20 21 21 18 19 20 21 25 25 20 20 19 16 18 18 16 14 10 10
18 19 18 18 19 20 20 19 18 17 16 17 18 20 21 22 23 24 23 21 21 23 25 27 29 30 29 28 27 26 26 27 26 23 22 23 22 23 23 22 21 20 19 21 23 24 22 21 22 23 24 24 22 22 19 16 17 17 17 16 12 11
19 20 19 20 21 22 22 20 20 19 18 18 19 20 22 22 23 23 23 22 23 24 26 28 30 31 32 31 30 28 27 27 28 26 24 24 23 23 23 23 21 20 20 21 23 26 26 25 25 25 24 24 23 21 19 16 16 16 16 15 13 13
20 20 19 20 22 23 22 21 20 19 19 18 19 20 21 22 23 23 23 24 25 25 27 29 31 32 33 33 32 30 29 28 28 28 26 24 24 23 23 23 22 22 21 21 22 25 27 25 25 26 25 24 22 20 19 17 16 16 16 15 14 13
20 20 20 21 23 23 22 21 20 19 19 19 19 20 21 22 22 22 23 25 26 27 28 30 32 33 34 34 34 32 30 29 29 29 28 26 25 24 23 23 23 23 22 20 20 22 23 23 24 24 24 24 23 21 20 18 17 17 17 16 15 14
20 20 21 22 23 23 22 21 20 19 19 19 20 20 22 22 22 23 25 26 28 29 30 31 33 34 35 35 34 32 29 29 29 29 28 27 26 25 24 23 23 22 22 21 20 21 21 22 22 22 22 23 23 22 21 19 18 17 18 17 16 15
21 21 22 22 23 22 22 22 20 19 19 19 20 21 21 21 22 24 26 28 29 31 32 33 34 34 35 35 33 30 28 27 28 28 27 27 26 24 24 23 23 22 22 22 22 21 22 22 22 22 23 23 23 22 21 20 18 17 18 18 16 15
21 21 22 22 22 22 22 21 20 19 19 20 21 21 22 22 23 25 26 28 30 32 34 35 36 35 35 34 33 30 28 27 27 27 26 26 25 23 23 23 23 22 22 23 22 21 22 23 23 23 24 24 23 22 22 19 17 17 18 18 17 16
21 22 22 22 22 22 21 20 20 20 20 21 22 22 22 23 24 25 26 28 30 33 35 37 38 37 35 34 33 30 28 27 27 26 25 25 24 22 21 22 22 22 22 21 21 21 22 24 24 24 25 25 23 22 21 19 17 18 18 17 16 16
21 22 22 22 22 22 21 20 20 20 21 22 23 23 23 24 25 25 27 29 31 33 35 38 39 38 35 33 31 29 27 27 27 26 25 25 23 21 20 20 21 22 21 20 20 21 22 23 25 26 27 26 24 23 22 20 19 18 18 18 17 17
21 21 21 21 21 21 21 20 20 21 22 22 23 24 24 25 26 27 28 30 32 34 35 37 37 36 34 33 32 30 29 29 29 27 26 25 23 20 19 20 21 21 20 20 19 19 20 20 22 24 25 26 25 24 23 22 20 19 19 20 19 18
21 21 21 21 21 21 21 21 21 21 22 23 24 25 25 26 27 28 29 31 32 34 35 37 37 35 35 35 36 35 33 32 31 29 28 26 23 20 19 20 21 21 20 19 19 19 19 19 20 21 22 24 24 23 23 22 21 19 19 20 19 18
20 21 21 22 22 21 21 21 21 22 23 24 25 26 27 27 28 29 30 31 32 33 34 36 38 38 38 39 39 38 36 35 34 32 31 27 24 21 20 20 21 21 18 18 20 20 21 21 20 21 22 23 23 22 22 21 21 20 20 20 19 18
19 20 21 22 22 22 22 21 22 22 23 25 26 27 27 28 29 29 30 31 32 32 33 35 38 39 39 40 38 36 35 35 35 35 33 28 25 22 21 20 20 20 17 16 18 19 22 22 21 22 23 23 23 22 22 22 21 20 20 20 19 19
19 20 21 22 23 23 22 22 23 23 24 25 27 28 28 28 29 30 30 31 32 33 34 36 38 39 39 39 38 36 34 34 34 35 33 31 29 25 22 19 18 19 17 16 16 17 23 24 23 24 24 24 23 23 23 22 21 21 21 20 20 20
19 20 21 22 23 23 23 23 23 24 25 26 27 28 29 29 29 30 30 31 32 33 34 36 38 39 39 39 38 36 35 34 34 32 31 32 31 27 23 19 17 18 17 17 16 18 24 25 25 25 24 24 23 23 23 22 21 21 21 21 21 20
20 21 22 23 23 23 23 23 24 25 26 27 28 29 30 29 29 29 30 31 32 33 35 36 37 39 40 39 38 36 35 35 34 31 29 28 27 26 23 19 16 16 16 17 17 17 21 24 25 25 24 23 23 22 22 22 22 22 21 22 21 21
21 22 22 23 23 24 24 24 25 26 27 27 28 29 30 29 29 29 30 31 32 33 35 36 37 39 40 38 37 34 34 35 33 31 29 26 24 23 22 18 17 16 16 16 18 18 19 22 24 25 23 23 22 22 23 22 22 23 22 22 21 21
23 23 23 23 23 24 24 25 25 26 27 27 28 29 30 29 29 29 30 31 32 34 35 37 38 40 39 36 33 31 32 32 31 29 27 25 24 23 23 21 19 17 16 17 17 18 19 21 23 24 23 23 23 23 22 22 23 23 23 21 22 22

ECMWFFLT2_500_spd_114.txt.gz
Wind_Speed
15 14 13 12 11 12 12 11 11 11 11 12 14 15 16 16 17 17 17 18 18 18 16 15 16 17 17 17 17 19 19 19 19 17 17 17 16 15 16 17 16 14 14 14 13 12 9 8 7 6 6 6 5 4 4 4 3 2 2 2 3 3
15 14 13 11 11 11 11 10 9 10 10 12 14 15 15 16 16 16 15 16 16 15 13 14 17 17 17 16 17 18 18 18 17 17 16 16 16 16 18 17 16 14 14 14 13 12 10 9 8 6 6 7 5 3 4 4 4 3 3 3 3 4
15 14 13 11 11 11 10 9 9 9 10 12 14 15 15 15 15 14 14 14 15 14 13 14 16 16 16 15 15 16 17 16 16 16 16 15 16 18 19 17 15 14 14 14 12 11 11 9 8 7 6 7 6 4 4 4 4 4 3 3 3 4
14 14 13 12 11 11 10 9 9 9 10 12 14 14 14 14 13 13 13 13 13 13 14 14 15 16 15 13 13 14 15 15 16 16 16 16 17 18 18 16 13 13 14 13 11 10 10 9 9 8 6 7 8 5 4 4 5 5 4 3 4 4
14 13 13 12 11 10 9 8 9 9 11 12 14 14 14 13 12 12 12 12 12 13 13 13 14 15 14 13 12 12 13 14 16 16 17 17 17 17 17 16 12 12 14 13 11 9 9 8 8 8 7 7 8 6 5 4 5 6 5 4 4 5
13 13 12 12 11 10 9 8 9 10 11 12 13 14 14 13 12 11 10 11 12 12 12 12 13 14 14 13 12 12 12 13 14 16 17 18 18 16 15 15 13 12 14 13 11 8 8 8 8 8 7 8 8 6 5 5 5 6 6 6 6 6
13 12 12 11 10 9 9 9 9 10 11 12 13 14 14 13 12 10 9 9 10 10 10 12 13 14 14 13 13 13 13 13 13 15 17 18 17 16 14 14 14 13 12 13 11 9 9 9 9 8 7 8 8 6 6 6 5 5 6 7 7 7
12 12 11 10 9 9 9 9 9 10 10 11 12 13 13 12 11 9 8 8 8 8 10 12 13 14 14 14 14 15 15 14 14 14 16 18 17 15 14 14 14 12 10 11 12 11 11 9 9 9 8 8 9 7 6 7 6 5 5 7 8 8
12 12 11 10 9 9 9 9 9 9 10 11 12 12 12 11 9 8 8 8 8 8 10 12 13 14 14 15 16 17 17 17 17 16 16 17 17 15 15 15 15 13 10 11 13 13 13 11 9 10 8 8 9 8 7 8 8 6 5 6 8 9
12 11 10 10 9 9 9 8 9 9 10 11 12 11 11 10 8 8 8 8 8 8 10 12 13 14 15 16 18 19 19 19 19 18 16 16 17 17 17 17 17 16 13 12 13 14 15 13 10 10 10 10 10 9 7 7 8 6 6 6 7 9
11 11 10 10 9 9 8 8 9 10 11 11 11 10 9 9 8 8 8 8 8 9 10 11 13 14 15 16 18 19 19 19 18 17 16 15 16 18 18 18 18 18 17 15 14 16 17 15 12 11 12 12 11 10 7 8 10 9 7 6 6 8
11 11 10 9 9 9 9 8 9 10 11 11 10 9 8 7 7 7 8 8 9 9 10 11 12 14 15 16 17 18 19 19 18 17 16 15 16 17 19 19 19 19 18 16 15 17 17 16 15 13 13 13 12 12 10 11 13 12 9 7 7 8
11 10 10 9 9 10 9 9 9 11 12 11 9 9 8 7 7 7 8 9 9 10 10 11 12 14 14 15 16 17 18 18 18 17 16 15 16 16 18 19 19 18 17 16 15 16 18 17 16 15 13 14 15 14 13 13 14 13 9 8 9 9
11 10 10 10 10 10 10 10 11 11 12 11 9 8 8 7 7 8 9 9 10 11 11 11 12 13 14 15 16 17 18 18 18 18 17 16 16 17 17 18 18 17 16 15 15 15 18 17 16 17 15 15 15 16 15 14 14 14 11 11 11 11
11 11 11 11 11 11 11 11 12 12 12 11 10 9 8 8 8 9 10 11 11 12 11 12 12 13 14 16 17 17 18 19 18 18 18 18 17 17 17 18 17 16 15 14 14 15 18 17 17 19 17 16 15 15 17 17 16 16 14 15 14 13
12 12 12 12 12 13 12 12 12 13 13 12 11 10 9 9 9 10 10 11 12 12 12 12 13 15 16 17 18 18 18 19 19 18 19 19 19 18 17 18 17 16 15 14 14 16 19 19 19 19 19 20 18 16 17 18 17 15 15 16 15 15
13 13 13 13 14 13 13 13 13 14 14 13 13 11 10 10 11 11 11 12 13 13 13 14 15 17 18 18 18 19 19 19 20 20 19 19 20 19 18 18 17 16 15 15 16 17 19 21 21 20 21 23 22 18 17 18 18 16 15 16 17 17
14 14 14 15 15 14 13 13 14 15 15 15 14 13 12 12 12 12 12 13 14 13 14 15 17 19 20 20 20 20 20 20 21 21 21 20 20 20 20 19 18 17 16 17 17 18 19 21 23 22 21 24 24 22 21 20 19 18 16 16 17 18
15 15 16 16 15 14 14 14 15 16 16 16 15 14 14 13 13 12 13 14 14 14 15 17 19 21 22 23 23 22 22 22 21 22 24 23 22 21 21 20 18 18 18 17 18 19 20 21 24 23 21 23 25 25 24 22 20 20 19 18 18 19
16 16 17 17 16 15 15 15 15 16 17 16 16 16 15 14 13 13 14 15 15 15 17 19 21 22 24 25 25 25 25 25 24 24 25 25 24 23 23 22 19 18 19 18 18 19 21 22 24 23 22 23 25 26 26 23 20 20 20 20 20 20
16 17 17 18 18 17 16 16 16 17 17 17 17 17 17 16 14 14 14 15 16 17 18 20 22 24 26 27 27 28 28 28 28 26 25 26 26 24 24 25 21 18 18 18 19 20 20 21 22 23 24 24 24 25 26 25 23 21 20 21 20 20
17 17 18 19 19 18 17 17 18 18 18 18 18 18 18 17 15 15 15 16 17 19 21 22 24 26 27 28 29 30 30 30 29 28 25 24 26 25 24 26 24 19 18 19 20 21 21 21 22 23 25 26 25 25 26 26 24 22 22 21 20 19
17 18 20 20 20 19 18 18 19 19 18 18 18 18 18 17 16 16 17 18 19 21 23 25 27 28 28 28 28 27 26 27 26 26 25 24 24 25 24 26 26 22 20 19 20 20 20 21 22 22 25 26 27 27 27 27 25 23 23 22 20 19
19 20 21 21 21 20 19 19 19 19 19 19 19 18 18 17 17 17 18 19 21 23 26 28 28 27 26 25 24 24 24 24 24 24 25 24 24 25 24 25 26 24 22 20 20 19 19 19 20 20 23 26 29 29 28 27 27 26 24 22 21 20
20 21 21 21 21 21 20 20 20 20 20 20 19 18 18 17 17 17 19 21 23 25 27 28 27 26 27 28 27 27 28 27 27 28 28 26 25 25 25 25 26 25 23 21 20 20 19 19 19 19 21 24 28 28 28 28 28 27 25 23 23 22
21 21 22 22 21 21 21 21 21 21 21 21 20 19 18 18 17 17 19 21 24 26 26 26 28 29 30 32 32 32 32 31 30 30 29 29 28 27 25 25 25 24 23 22 20 19 19 18 19 20 21 23 26 26 27 29 29 27 25 24 24 22
21 21 22 22 22 22 22 22 23 23 22 22 21 20 19 18 18 18 19 21 24 26 27 27 28 30 31 32 32 32 32 32 31 31 30 29 30 29 26 25 24 23 23 22 19 19 19 19 19 21 23 25 26 27 28 28 29 28 26 25 24 22
21 22 22 22 22 23 23 23 24 24 24 24 23 21 20 19 18 18 19 22 24 26 29 28 28 31 33 32 31 31 32 32 32 33 32 30 31 31 29 27 24 23 23 22 18 18 19 20 20 22 24 26 26 28 28 27 28 27 26 25 24 22
22 22 22 22 22 23 23 24 24 25 25 25 24 22 21 20 19 19 20 23 25 26 29 31 32 33 33 33 33 33 33 34 34 34 33 30 30 30 30 29 27 24 23 22 19 18 19 21 21 22 24 25 27 28 28 28 27 26 26 25 24 23
22 22 22 22 22 23 23 24 25 25 26 26 25 23 21 21 20 20 21 24 26 27 29 32 35 35 33 33 34 34 35 37 38 37 35 32 30 29 29 29 28 25 24 23 21 19 19 21 22 23 24 26 27 28 28 28 27 26 26 25 24 23
23 23 23 23 23 23 24 24 25 25 26 25 25 24 22 21 21 21 23 25 27 28 29 31 34 35 34 34 34 34 35 36 38 39 38 36 33 30 29 29 28 26 24 23 22 20 20 21 21 22 23 25 27 29 30 29 28 27 27 26 24 23
23 23 24 24 24 24 24 25 25 25 25 25 25 24 23 23 22 23 24 26 27 29 30 31 33 34 34 33 34 34 35 36 37 38 38 38 36 31 29 29 28 26 24 24 23 21 20 19 19 21 22 22 25 29 31 31 29 28 28 27 25 23
24 24 24 24 25 25 25 25 25 26 26 25 25 25 24 24 24 24 25 26 28 29 30 31 32 33 33 33 34 34 35 36 36 37 37 38 37 32 29 28 27 27 25 24 24 23 21 19 19 23 25 22 23 26 29 30 30 29 28 27 25 23
25 25 24 24 24 24 25 25 26 26 27 26 26 25 25 25 25 25 26 28 29 29 30 31 31 33 33 34 34 34 36 36 36 35 34 35 35 31 29 28 27 27 26 24 25 24 22 20 21 24 27 25 24 26 27 29 29 28 28 27 26 24
25 25 24 23 23 23 24 25 26 27 27 27 26 26 26 26 26 26 27 28 29 30 30 31 31 32 33 34 34 35 36 37 36 33 31 32 32 28 27 27 26 27 27 26 25 24 22 21 22 25 28 26 26 27 27 28 28 29 28 27 27 26
26 25 24 23 23 23 24 25 26 26 27 27 27 27 27 27 27 27 27 28 29 29 30 30 30 31 32 33 34 35 37 38 35 31 30 30 28 25 24 25 25 25 26 26 25 22 21 20 21 25 28 28 29 29 29 28 29 29 28 27 28 27
26 25 25 24 24 25 25 25 26 26 27 27 27 27 27 27 27 27 28 28 29 29 29 29 30 30 31 33 34 35 36 36 34 30 28 27 24 22 22 23 24 24 25 25 23 21 21 20 20 23 26 29 30 31 30 28 27 27 26 28 29 28

ECMWFFLT2_500_spd_117.txt.gz
Wind_Speed
16 16 15 15 15 14 13 13 13 13 12 11 12 13 15 17 17 17 17 16 15 15 14 12 12 13 14 14 14 13 13 13 12 12 11 12 12 12 13 15 15 14 12 10 9 8 8 10 12 9 7 6 6 7 7 7 7 7 7 8 8 8
16 16 16 16 15 14 13 13 14 12 11 11 12 13 15 17 17 17 16 15 14 13 12 11 11 12 13 13 13 13 12 12 12 11 12 12 12 13 14 15 15 14 11 10 8 8 8 9 11 10 8 7 7 8 8 8 9 8 8 8 8 9
16 16 16 16 15 14 14 14 13 12 11 11 12 13 15 17 17 16 15 15 14 13 12 11 11 11 12 12 13 13 12 12 12 12 12 13 14 14 15 15 15 13 11 10 8 8 8 9 10 10 9 9 8 8 9 9 9 9 8 8 8 9
15 15 15 15 15 14 14 14 13 12 11 11 12 13 15 16 16 16 15 14 13 13 13 11 10 10 11 11 12 12 12 12 12 13 13 14 14 15 15 15 14 13 12 12 10 8 8 9 10 10 9 10 10 9 9 9 10 9 9 9 9 9
15 15 15 15 15 15 14 13 12 12 11 11 11 13 15 16 15 15 13 12 12 12 12 10 9 9 10 10 10 11 12 13 12 13 13 14 15 15 15 14 13 13 13 14 13 9 7 9 10 11 10 11 11 10 9 10 10 10 10 10 10 10
15 16 15 15 15 15 14 13 12 11 11 11 11 13 15 15 14 13 11 10 11 11 10 10 9 9 8 9 9 10 12 13 13 12 13 14 15 15 14 13 12 12 13 14 15 12 8 8 10 10 10 11 12 11 10 10 10 10 10 10 10 11
15 16 15 15 15 15 14 13 12 11 10 10 11 13 14 14 13 12 9 9 9 9 9 10 9 8 7 8 9 10 12 12 13 13 13 13 14 14 13 13 12 12 13 14 14 14 11 7 7 9 10 12 13 13 12 11 11 10 10 11 11 11
15 16 16 15 15 14 13 12 11 10 10 10 11 12 13 12 12 10 8 7 7 8 9 9 9 8 8 8 10 11 11 12 12 12 12 12 13 13 12 12 13 13 14 14 14 15 14 10 6 8 11 13 14 14 14 12 11 10 10 11 10 11
15 16 16 15 14 14 13 11 10 10 10 10 11 12 12 11 10 9 7 7 6 7 8 9 9 9 9 10 11 12 12 13 12 12 12 12 12 12 12 11 12 13 14 15 15 16 16 13 9 8 12 14 15 15 15 13 11 10 9 9 9 10
15 15 15 15 14 13 12 11 10 10 9 10 11 11 11 10 9 8 7 7 7 8 9 9 10 10 10 10 11 12 13 14 13 13 12 12 12 12 12 12 11 12 13 14 15 17 17 15 12 10 13 16 17 17 16 14 11 9 8 8 8 9
15 15 15 14 14 13 11 10 10 10 9 10 11 11 10 10 9 8 8 8 8 9 9 10 11 11 11 11 11 12 13 14 15 14 14 14 13 13 13 13 12 12 13 14 15 16 17 16 15 13 13 17 18 18 17 15 11 9 8 8 7 8
15 15 15 14 13 12 11 11 10 10 10 10 11 11 11 11 10 9 9 9 9 10 11 12 12 12 12 12 12 12 13 15 16 17 16 16 15 15 14 14 14 13 13 13 14 15 16 17 17 15 14 17 19 19 19 16 14 13 11 10 9 8
15 15 15 14 13 12 11 11 11 11 10 10 11 11 12 12 11 11 11 10 10 10 12 12 13 12 12 12 13 14 15 17 18 19 20 20 18 17 17 16 17 16 14 13 13 14 15 17 18 16 15 17 19 20 19 18 17 16 14 13 11 9
15 15 15 14 13 12 12 12 11 11 10 11 12 12 13 13 12 12 12 12 12 12 13 13 14 13 13 13 13 15 17 18 19 20 22 22 19 19 19 20 20 19 17 15 14 15 15 16 17 16 15 17 19 21 20 20 20 18 17 17 15 13
15 15 15 14 13 13 13 12 11 11 11 12 13 13 14 14 13 13 14 14 15 15 15 15 15 14 14 14 15 16 17 19 21 21 23 23 21 20 20 21 23 23 21 18 16 16 15 15 16 15 16 17 19 21 21 23 23 22 21 19 17 16
15 16 15 15 14 13 13 12 11 11 12 13 14 14 15 15 15 15 16 16 17 17 17 17 17 16 16 16 16 17 18 20 21 22 22 23 23 21 20 22 23 23 24 22 20 18 17 16 16 17 17 17 19 21 23 23 24 24 22 19 17 18
16 16 15 14 14 14 13 13 12 12 13 13 14 15 17 17 17 17 17 17 18 18 19 19 18 18 17 17 18 19 20 21 21 21 21 22 23 23 21 21 22 22 23 24 23 22 20 18 17 18 19 19 19 21 23 24 24 23 23 21 18 18
15 15 15 15 14 14 14 13 12 12 13 14 15 16 18 18 18 18 19 19 19 19 19 19 19 19 19 19 19 19 20 21 22 23 23 23 24 25 24 22 21 21 22 23 24 24 24 23 21 20 20 21 20 21 24 26 25 23 24 23 20 18
16 16 15 15 14 14 14 14 13 13 14 15 16 17 19 19 20 20 20 19 19 20 19 19 19 19 20 20 19 20 21 23 23 23 24 25 24 25 26 25 24 22 22 21 21 23 24 25 25 22 21 21 22 22 25 28 28 24 24 25 22 20
16 16 16 15 14 14 15 15 15 15 15 16 17 18 20 20 21 21 21 20 20 20 20 19 19 20 20 20 21 21 22 21 21 22 24 25 24 23 24 26 26 25 23 21 20 21 23 25 26 24 22 23 23 24 26 28 29 27 25 26 24 22
16 16 16 15 15 15 16 16 16 16 17 17 18 19 20 21 22 22 21 21 20 20 19 19 19 20 20 21 20 20 20 21 21 23 25 25 25 24 23 23 25 26 25 23 22 22 23 25 26 25 24 24 24 25 26 27 29 30 28 27 25 24
16 16 16 16 16 16 17 17 17 17 18 18 19 20 21 22 22 22 22 21 20 20 20 20 21 22 21 20 19 21 23 24 23 24 25 25 26 26 25 23 23 24 25 24 23 22 23 25 27 26 25 26 25 25 27 27 29 31 31 30 27 25
16 16 17 17 17 17 18 18 18 18 19 20 20 20 21 22 23 22 22 21 20 20 21 22 23 22 22 21 22 25 26 25 25 25 25 25 25 26 27 26 24 24 25 24 24 23 23 24 26 26 26 28 27 26 28 28 28 30 33 32 29 27
16 17 17 18 18 18 19 19 19 19 20 20 21 21 21 22 23 23 22 21 21 21 21 22 23 22 23 23 24 26 27 28 28 27 26 25 25 26 27 27 27 26 26 25 24 24 24 24 25 26 27 29 28 27 28 28 29 31 32 32 30 29
17 17 18 19 19 19 20 20 20 20 21 21 21 21 22 23 23 23 23 22 21 21 21 22 23 23 24 24 26 27 29 30 29 28 27 26 26 27 27 28 28 27 26 26 25 23 24 25 25 27 28 28 28 28 26 27 30 32 31 30 30 29
18 18 19 20 20 20 20 21 21 22 22 22 22 22 23 23 24 24 24 23 22 21 22 22 23 24 24 26 27 29 30 30 29 28 27 26 27 29 29 29 28 28 27 28 27 24 24 26 26 27 27 26 27 27 25 28 31 32 31 30 30 30
19 19 19 20 20 21 21 22 22 22 23 23 23 23 23 24 24 25 24 23 23 22 22 23 24 24 25 27 29 30 31 31 30 29 28 27 27 28 30 30 29 29 28 28 29 26 25 26 26 26 26 25 26 26 25 27 28 30 32 32 31 31
20 19 20 20 21 22 22 23 23 23 23 23 23 24 24 24 24 25 25 24 23 23 23 23 24 25 26 27 29 30 31 32 31 31 31 31 30 30 31 31 30 29 29 29 29 28 26 26 25 25 25 25 27 27 26 26 27 29 31 32 32 31
20 20 20 21 22 23 23 23 23 23 24 24 23 24 24 24 24 25 25 24 24 23 24 24 25 25 26 27 29 30 31 31 32 33 34 35 35 35 34 34 32 31 30 29 28 28 28 27 26 25 25 25 27 28 27 27 29 30 29 30 31 30
21 20 21 22 23 23 23 23 23 23 24 24 24 24 24 24 24 25 25 25 24 23 24 25 26 26 27 28 29 30 31 31 32 33 35 37 38 38 38 36 34 32 31 29 29 28 28 28 26 25 26 26 27 28 27 28 29 30 29 29 31 32
21 21 22 23 23 24 24 24 24 24 25 25 25 25 25 24 24 25 25 25 24 23 24 25 26 27 28 29 30 31 31 31 32 33 34 36 38 39 39 38 35 33 31 30 29 29 28 28 26 25 26 27 27 28 29 30 30 30 31 31 32 33
22 23 23 23 24 25 25 25 25 25 26 27 27 26 26 25 25 25 25 25 24 24 24 24 26 27 28 30 31 32 32 31 31 32 33 35 37 38 38 37 35 33 31 30 29 28 28 27 26 26 26 28 29 29 30 32 33 32 32 32 33 33
24 24 24 25 25 25 25 26 26 26 27 27 27 27 26 26 26 26 25 26 25 25 24 24 26 27 29 30 32 32 32 32 32 32 34 36 37 37 36 35 34 33 31 29 28 27 27 27 27 26 27 30 30 28 28 31 32 33 34 33 32 32
26 26 26 26 26 26 26 26 27 27 27 28 27 27 27 27 27 26 26 26 26 25 25 25 26 27 29 30 31 32 32 31 32 33 34 36 37 36 34 33 33 32 30 28 27 27 27 28 27 26 27 30 29 25 25 28 30 32 35 34 33 32
27 27 26 27 27 27 27 28 28 28 29 29 28 27 27 27 27 27 27 26 26 26 25 26 27 28 29 30 31 31 31 31 32 33 34 36 35 34 32 32 32 30 28 26 25 25 26 27 27 26 26 27 29 27 26 28 27 30 34 35 34 33
27 27 27 28 29 29 29 29 29 29 30 29 28 27 27 27 28 27 27 26 26 26 25 25 26 27 28 29 30 30 30 31 32 32 34 35 34 32 31 30 28 26 25 24 23 23 23 25 26 25 24 25 28 28 27 28 28 29 33 36 36 34
27 28 29 29 29 30 30 30 30 30 30 29 29 28 28 28 28 27 27 26 26 26 25 25 26 26 27 28 29 30 30 30 32 32 33 34 32 30 28 27 24 23 22 21 20 21 21 22 23 23 23 23 25 26 28 30 29 30 32 34 35 34

ECMWFFLT2_500_spd_123.txt.gz
Wind_Speed
11 10 10 9 9 9 9 9 9 9 9 9 10 10 10 10 11 12 14 16 17 17 17 15 14 14 14 14 14 14 13 12 12 12 11 11 10 10 9 9 10 12 12 10 10 10 8 9 11 10 10 10 10 10 9 9 9 10 10 11 11 11
11 10 9 9 9 8 9 9 10 9 9 9 10 10 10 10 11 12 14 16 17 17 17 15 14 14 13 13 14 14 12 11 12 13 13 12 12 11 10 10 10 11 13 11 9 10 10 9 10 11 11 12 12 11 11 10 10 11 11 11 12 12
11 10 9 9 9 8 9 10 10 9 9 10 10 11 11 11 11 12 14 16 17 18 17 15 14 13 13 13 14 14 13 12 13 13 14 14 13 12 11 11 10 10 12 12 10 10 10 9 10 12 12 12 13 12 12 12 11 11 12 12 13 13
11 10 9 8 8 8 9 10 10 10 10 10 11 11 11 11 11 12 14 15 17 18 17 15 14 13 13 13 14 14 13 13 14 14 15 15 14 13 12 11 10 10 11 12 12 11 11 10 10 12 12 12 14 14 14 13 13 12 13 14 14 14
11 10 9 8 8 8 9 9 10 10 11 11 12 12 12 11 11 12 13 15 17 17 17 15 14 13 13 13 14 14 14 15 15 15 14 14 14 13 12 11 10 10 10 12 14 13 12 11 10 11 13 12 13 14 15 15 14 14 14 15 15 15
12 11 9 8 8 8 9 10 10 11 12 12 12 12 12 12 11 12 13 15 16 16 16 15 14 13 13 13 14 14 14 15 15 14 15 15 14 13 12 10 9 8 9 10 13 14 13 13 12 12 13 13 13 14 15 16 16 16 16 16 15 15
13 12 10 9 9 9 10 11 11 12 12 13 13 13 13 12 11 12 13 14 15 15 15 14 13 12 13 14 14 14 14 15 15 15 16 16 16 15 13 12 10 8 8 9 11 12 12 12 12 13 14 14 14 14 15 17 17 17 18 17 16 15
13 12 11 10 10 10 11 12 12 13 13 13 13 13 13 12 12 12 13 14 15 14 13 12 12 12 13 14 14 14 14 14 14 15 17 18 18 17 16 14 12 9 8 9 10 11 11 10 11 13 15 14 15 16 16 17 18 18 18 18 16 15
14 13 12 11 11 11 12 12 13 13 14 13 13 14 13 12 12 12 13 13 14 14 12 11 11 12 13 14 15 15 15 14 14 15 17 19 19 19 18 16 14 11 10 9 10 12 13 12 11 12 14 15 16 18 17 17 18 18 18 18 17 16
15 14 12 11 11 11 12 12 13 14 14 14 14 14 13 12 12 12 13 14 14 14 13 12 11 12 13 14 15 15 15 14 14 15 17 19 20 20 20 19 17 14 13 11 11 12 14 14 12 12 14 16 17 18 18 19 19 19 18 17 17 17
15 14 13 12 12 12 12 13 13 14 14 15 15 14 13 12 12 12 13 14 14 14 14 13 12 13 14 14 15 14 14 14 15 16 17 18 20 21 21 20 19 17 16 14 13 13 14 15 14 14 14 16 17 17 18 20 20 20 19 17 17 18
15 14 13 13 13 13 13 13 14 14 15 16 16 15 13 13 13 13 13 14 14 15 15 14 14 14 14 15 14 14 14 15 16 16 17 18 20 22 22 21 19 18 17 16 15 15 15 16 16 15 15 15 16 17 18 20 21 21 20 19 18 19
14 14 13 13 13 13 13 13 14 15 16 16 16 15 14 14 13 14 14 14 14 15 16 16 15 15 15 15 15 15 15 15 16 17 17 18 20 22 21 20 19 19 18 17 16 16 16 16 17 16 16 15 16 17 17 18 22 23 22 20 19 19
13 13 13 14 14 14 13 14 14 15 16 17 16 15 15 14 14 14 14 14 14 16 16 17 17 17 17 17 16 16 15 15 16 17 18 19 20 20 20 21 21 20 20 19 19 18 17 16 17 17 17 17 17 17 17 18 21 24 24 21 20 21
12 12 13 14 14 14 14 14 15 16 17 17 16 16 15 15 14 14 14 14 15 16 17 18 19 19 18 18 17 16 16 16 17 18 19 19 18 18 20 22 22 22 22 21 20 20 19 17 17 17 18 18 18 18 17 19 20 23 25 23 21 22
11 11 12 14 15 15 15 15 16 16 17 17 16 15 15 15 15 14 14 14 15 16 18 19 20 20 20 19 18 17 16 16 17 19 19 19 18 19 21 22 23 24 23 22 21 21 20 18 18 18 18 19 19 19 18 19 20 21 24 25 24 23
12 12 13 14 14 15 15 15 16 16 16 16 15 15 15 15 15 14 14 14 15 16 18 19 20 21 21 20 19 18 17 17 18 19 19 18 20 21 22 23 24 24 24 24 22 22 21 20 19 19 19 19 19 19 19 19 20 21 23 25 26 25
14 14 14 14 14 15 15 15 16 16 16 15 15 15 15 15 15 14 15 15 16 17 18 19 20 21 21 20 20 19 18 18 19 19 19 20 22 22 23 24 25 25 25 25 24 23 22 22 21 19 19 20 20 20 20 20 20 21 22 24 27 27
15 15 15 14 14 14 15 15 15 15 15 15 15 15 15 14 15 15 15 16 16 17 18 19 20 21 21 21 20 20 19 19 19 20 20 21 23 23 24 24 25 25 25 24 24 24 23 23 22 21 20 21 21 22 21 21 21 21 22 22 25 27
15 15 15 15 14 14 15 15 15 16 16 15 15 15 14 15 15 16 16 16 16 17 18 19 20 21 22 21 21 20 20 20 20 20 21 21 22 23 24 24 25 26 26 25 24 24 23 23 23 23 22 21 22 23 23 23 22 23 23 22 24 27
16 16 15 15 15 14 15 15 16 16 16 15 15 14 14 15 16 16 16 16 16 17 18 19 20 21 21 22 21 21 20 20 20 21 21 21 22 23 23 24 25 26 26 26 25 25 24 23 23 24 24 23 23 25 25 24 24 24 25 25 24 24
18 16 15 15 15 15 15 15 16 15 15 15 15 15 15 15 16 16 16 16 17 17 18 19 21 21 21 21 22 22 21 21 21 21 21 21 22 23 24 24 24 25 26 26 26 26 25 25 25 26 26 26 25 25 26 26 26 26 26 27 26 23
18 17 16 15 15 15 15 15 15 15 15 15 14 14 15 16 17 17 17 17 17 18 19 20 21 22 22 22 22 22 22 22 21 21 21 22 23 23 24 24 24 24 25 26 27 27 27 27 27 27 27 28 28 27 26 27 28 28 27 27 27 26
17 17 16 16 15 15 15 15 15 15 15 14 14 14 15 16 16 16 17 17 17 18 19 20 22 23 23 23 23 22 22 22 21 21 21 22 23 24 25 25 26 26 26 27 27 28 28 29 29 29 29 29 30 29 28 29 30 29 29 28 28 29
18 17 16 16 15 15 15 15 15 14 14 13 14 14 15 16 16 17 17 18 18 18 19 20 22 23 24 24 23 23 22 22 21 21 21 22 24 25 26 27 27 27 28 28 28 28 28 30 31 31 30 30 31 31 30 31 31 31 31 30 29 29
18 17 17 16 15 15 14 14 13 13 13 13 13 14 15 16 17 17 18 18 18 19 19 21 22 23 24 24 24 23 23 22 22 22 22 23 24 26 27 28 28 29 29 30 30 29 28 29 30 32 32 31 31 32 32 31 31 32 32 31 30 30
17 17 16 15 14 14 13 13 12 12 12 12 13 14 15 16 17 17 17 18 18 19 19 21 22 23 24 24 24 23 23 23 22 22 23 23 24 26 27 28 29 30 31 31 32 32 31 29 29 30 32 33 33 33 32 32 32 32 32 31 30 29
17 16 16 15 14 13 13 12 12 12 12 13 13 14 15 16 17 17 17 18 18 19 19 21 22 23 24 24 24 23 23 23 23 23 23 24 25 26 27 28 30 31 31 32 33 33 33 32 31 30 31 33 33 34 34 33 33 33 33 31 30 29
18 17 16 15 14 13 13 12 12 12 13 13 13 14 15 15 16 17 18 19 19 19 20 20 21 23 23 24 24 23 23 23 23 23 23 24 25 27 28 30 31 32 33 34 35 35 35 34 33 33 33 33 33 34 34 33 33 33 33 32 31 30
19 19 17 16 14 13 13 13 13 13 12 12 12 13 15 15 16 17 18 19 20 20 20 21 22 22 23 24 23 23 23 23 23 23 23 24 25 27 28 30 32 33 34 34 35 37 37 36 35 34 33 33 33 33 33 32 33 34 34 33 31 31
19 19 18 16 15 14 14 13 13 12 11 11 12 14 15 15 16 17 18 19 20 20 21 22 23 23 23 24 24 24 23 23 23 23 23 24 26 27 29 31 32 33 34 35 36 37 37 37 36 35 34 33 33 34 33 32 34 35 34 33 32 32
18 18 18 17 16 15 13 12 11 10 10 12 13 15 16 16 17 18 19 20 20 21 21 22 24 24 24 24 24 24 24 24 23 23 24 25 26 28 29 31 32 34 35 35 36 37 37 37 37 35 35 34 33 34 34 33 33 34 33 32 33 32
19 18 19 19 16 14 12 11 11 11 12 13 15 16 16 17 17 18 20 20 21 21 22 23 24 25 25 25 25 25 25 24 24 24 24 25 27 28 29 31 33 34 35 35 36 37 37 37 37 36 35 34 32 32 32 32 32 31 31 32 32 31
23 20 19 18 16 13 12 11 11 12 13 15 16 17 18 18 19 20 21 21 22 22 22 23 24 24 25 25 25 25 25 24 24 24 25 26 27 28 30 31 33 34 35 36 36 36 36 36 36 35 33 32 31 29 29 30 31 30 30 30 30 29
23 22 20 18 16 13 13 13 13 14 15 17 17 19 19 20 20 21 22 22 23 22 22 23 24 24 24 25 25 24 24 24 24 24 25 26 27 28 30 31 33 34 34 35 36 35 36 36 35 33 30 29 28 26 26 26 27 28 29 28 27 27
19 22 21 19 16 14 13 14 14 16 17 18 19 20 21 21 22 22 23 23 23 23 23 23 24 24 24 24 24 24 24 24 24 24 24 25 26 27 29 31 33 34 34 34 35 35 34 34 33 30 27 26 24 23 22 21 22 24 26 26 25 24
17 21 19 18 16 14 14 15 16 17 18 19 20 21 22 22 23 23 24 24 24 23 24 24 24 23 24 25 25 24 24 24 24 24 24 25 25 27 28 30 32 33 32 32 33 34 33 31 29 27 26 23 21 20 19 18 19 21 22 22 23 23